Weather History for Pittsburgh Allegheny Co., PA

Change the Weather History Date:

Saturday, February 15, 2014

  Actual Average Record
Temperature  
Mean Temperature 22 °F -  
Max Temperature 28 °F 48 °F 66 °F (1990)
Min Temperature 15 °F 27 °F 3 °F (2007)
Degree Days  
Heating Degree Days 43    
Moisture  
Dew Point 17 °F    
Average Humidity 73    
Maximum Humidity 93    
Minimum Humidity 46    
Precipitation  
Precipitation 0.14 in - - ()
Sea Level Pressure  
Sea Level Pressure 29.83 in    
Wind  
Wind Speed 8 mph (NNW)    
Max Wind Speed 15 mph    
Max Gust Speed 23 mph    
Visibility 4 miles    
Events Fog , Snow    
Averages and records for this station are not official NWS values.
T = Trace of Precipitation, MM = Missing Value Source: NWS Daily Summary

Daily Weather History Graph

Daily Weather History Graph

Search for Another Location

Airport:

Trip Planner

Search our weather history database for the weather conditions in past years. The results will help you decide how hot, cold, wet, or windy it might be!

Date:

Astronomy

Feb. 15, 2014 Rise Set
Actual Time 7:13 AM EST 5:55 PM EST
Civil Twilight 6:45 AM EST 6:23 PM EST
Nautical Twilight 6:13 AM EST 6:54 PM EST
Astronomical Twilight 5:41 AM EST 7:26 PM EST
Moon 6:53 PM EST (2/15) 7:10 AM EST (2/15)
Length of Visible Light 11h 37m
Length of Day
10h 42m
Full, 100% of the Moon is Illuminated
Feb 15
Full
Feb 22
Last Quarter
Mar 1
New
Mar 8
First Quarter
Mar 16
Full

Hourly Weather History & Observations

Time (EST) Temp. Windchill Dew Point Humidity Pressure Visibility Wind Dir Wind Speed Gust Speed Precip Events Conditions
12:20 AM 26.6 °F - 24.8 °F 93% 29.68 in 0.8 mi Calm Calm - 0.01 in Snow Light Snow
12:37 AM 28.4 °F 24.6 °F 24.8 °F 86% 29.68 in 1.0 mi NNE 3.5 mph - 0.02 in Snow Light Snow
12:48 AM 26.6 °F 21.2 °F 24.8 °F 93% 29.67 in 1.5 mi North 4.6 mph - 0.02 in Snow Light Snow
12:53 AM 27.0 °F 21.6 °F 24.1 °F 89% 29.72 in 1.5 mi North 4.6 mph - 0.02 in Snow Light Snow
1:53 AM 27.0 °F 19.5 °F 24.1 °F 89% 29.70 in 1.5 mi North 6.9 mph - 0.02 in Snow Light Snow
2:53 AM 26.1 °F 18.4 °F 23.0 °F 88% 29.70 in 1.2 mi North 6.9 mph - 0.01 in Snow Light Snow
3:53 AM 26.1 °F 17.6 °F 23.0 °F 88% 29.69 in 1.5 mi NNW 8.1 mph - 0.01 in Snow Light Snow
4:28 AM 26.6 °F 17.5 °F 23.0 °F 86% 29.64 in 1.8 mi NNW 9.2 mph - 0.01 in Snow Light Snow
4:53 AM 25.0 °F 15.5 °F 21.9 °F 88% 29.70 in 1.5 mi North 9.2 mph - 0.01 in Snow Light Snow
5:53 AM 25.0 °F 15.5 °F 21.0 °F 85% 29.73 in 1.2 mi NNW 9.2 mph 17.3 mph 0.02 in Snow Light Snow
6:20 AM 24.8 °F 13.4 °F 21.2 °F 86% 29.69 in 0.8 mi NNW 12.7 mph 18.4 mph 0.01 in Snow Light Snow
6:39 AM 24.8 °F 14.0 °F 19.4 °F 80% 29.70 in 0.8 mi NNW 11.5 mph - 0.01 in Snow Light Snow
6:46 AM 24.8 °F 13.4 °F 19.4 °F 80% 29.71 in 1.0 mi NNW 12.7 mph - 0.02 in Snow Light Snow
6:53 AM 24.1 °F 12.5 °F 19.9 °F 84% 29.77 in 0.8 mi NNW 12.7 mph - 0.02 in Snow Light Snow
7:14 AM 23.0 °F 10.1 °F 19.4 °F 86% 29.73 in 1.0 mi NNW 15.0 mph 19.6 mph 0.00 in Snow Light Snow
7:24 AM 23.0 °F 10.6 °F 19.4 °F 86% 29.74 in 1.0 mi NNW 13.8 mph 20.7 mph 0.01 in Snow Light Snow
7:32 AM 23.0 °F 13.1 °F 19.4 °F 86% 29.74 in 0.5 mi NNW 9.2 mph 20.7 mph 0.01 in Fog , Snow Light Snow
7:53 AM 23.0 °F 10.6 °F 19.0 °F 85% 29.81 in 0.5 mi NNW 13.8 mph 20.7 mph 0.01 in Fog , Snow Light Snow
8:11 AM 23.0 °F 11.1 °F 19.4 °F 86% 29.77 in 0.5 mi NNW 12.7 mph 19.6 mph 0.01 in Fog , Snow Light Snow
8:19 AM 23.0 °F 13.1 °F 19.4 °F 86% 29.78 in 0.5 mi NNW 9.2 mph 20.7 mph 0.01 in Fog , Snow Light Snow
8:34 AM 24.8 °F 13.4 °F 19.4 °F 80% 29.79 in 1.0 mi NNW 12.7 mph 19.6 mph 0.01 in Snow Light Snow
8:48 AM 24.8 °F 15.3 °F 19.4 °F 80% 29.80 in 1.5 mi NNW 9.2 mph - 0.01 in Snow Light Snow
8:53 AM 24.1 °F 13.7 °F 19.0 °F 81% 29.86 in 1.5 mi NNW 10.4 mph - 0.01 in Snow Light Snow
9:02 AM 24.8 °F 16.1 °F 19.4 °F 80% 29.81 in 1.0 mi NNW 8.1 mph - 0.00 in Snow Light Snow
9:05 AM 24.8 °F 15.3 °F 19.4 °F 80% 29.81 in 0.8 mi NW 9.2 mph - 0.00 in Snow Light Snow
9:22 AM 24.8 °F 15.3 °F 19.4 °F 80% 29.82 in 0.5 mi NW 9.2 mph - 0.01 in Snow Snow
9:35 AM 24.8 °F 16.1 °F 19.4 °F 80% 29.82 in 1.0 mi NNW 8.1 mph - 0.01 in Snow Light Snow
9:42 AM 24.8 °F 16.9 °F 19.4 °F 80% 29.83 in 1.5 mi NW 6.9 mph - 0.01 in Snow Light Snow
9:53 AM 25.0 °F 14.2 °F 18.0 °F 75% 29.88 in 2.5 mi NNW 11.5 mph 16.1 mph 0.01 in Snow Light Snow
10:01 AM 24.8 °F 15.3 °F 17.6 °F 74% 29.83 in 5.0 mi NW 9.2 mph - 0.00 in   Haze
10:13 AM 26.6 °F 16.8 °F 17.6 °F 69% 29.83 in 6.0 mi NNW 10.4 mph - 0.00 in   Haze
10:34 AM 26.6 °F 15.7 °F 17.6 °F 69% 29.84 in 7.0 mi NNW 12.7 mph 19.6 mph 0.00 in   Mostly Cloudy
10:49 AM 28.4 °F 18.0 °F 17.6 °F 64% 29.84 in 8.0 mi NNW 12.7 mph 19.6 mph 0.00 in   Scattered Clouds
10:53 AM 27.0 °F 16.1 °F 16.0 °F 63% 29.90 in 8.0 mi NNW 12.7 mph 19.6 mph 0.00 in   Scattered Clouds
11:25 AM 26.6 °F 15.7 °F 17.6 °F 69% 29.85 in 8.0 mi NW 12.7 mph 20.7 mph N/A   Mostly Cloudy
11:53 AM 27.0 °F 15.2 °F 17.1 °F 66% 29.91 in 8.0 mi NW 15.0 mph 23.0 mph N/A   Overcast
12:53 PM 27.0 °F 16.1 °F 15.1 °F 61% 29.91 in 6.0 mi NW 12.7 mph 18.4 mph 0.00 in   Haze
1:16 PM 28.4 °F 18.5 °F 15.8 °F 59% 29.85 in 5.0 mi NW 11.5 mph 18.4 mph 0.00 in Snow Light Snow
1:25 PM 26.6 °F 16.8 °F 15.8 °F 64% 29.86 in 2.0 mi NNW 10.4 mph 18.4 mph 0.00 in Snow Light Snow
1:27 PM 26.6 °F 16.2 °F 17.6 °F 69% 29.86 in 1.8 mi NNW 11.5 mph 18.4 mph 0.00 in Snow Light Snow
1:35 PM 28.4 °F 20.4 °F 17.6 °F 64% 29.86 in 4.0 mi NW 8.1 mph - 0.00 in Snow Light Snow
1:53 PM 28.0 °F 18.6 °F 16.0 °F 61% 29.92 in 7.0 mi WNW 10.4 mph 20.7 mph 0.00 in Snow Light Snow
2:15 PM 26.6 °F 15.2 °F 15.8 °F 64% 29.86 in 6.0 mi NNW 13.8 mph 19.6 mph N/A   Haze
2:28 PM 28.4 °F 20.4 °F 15.8 °F 59% 29.86 in 10.0 mi WNW 8.1 mph - 0.00 in   Overcast
2:53 PM 28.0 °F 17.5 °F 16.0 °F 61% 29.93 in 10.0 mi NNW 12.7 mph 18.4 mph 0.00 in   Overcast
3:53 PM 28.0 °F 20.0 °F 12.0 °F 51% 29.95 in 10.0 mi NW 8.1 mph 21.9 mph N/A   Mostly Cloudy
4:53 PM 28.0 °F 19.3 °F 10.9 °F 49% 29.96 in 10.0 mi NW 9.2 mph 19.6 mph N/A   Clear
5:53 PM 25.0 °F 17.1 °F 8.1 °F 49% 30.00 in 10.0 mi Variable 6.9 mph - N/A   Clear
6:53 PM 24.1 °F 13.7 °F 6.1 °F 46% 30.04 in 10.0 mi West 10.4 mph 17.3 mph N/A   Clear
7:53 PM 21.0 °F 11.4 °F 3.9 °F 48% 30.07 in 10.0 mi WNW 8.1 mph 17.3 mph N/A   Clear
8:53 PM 19.0 °F 10.0 °F 3.9 °F 52% 30.08 in 10.0 mi Variable 6.9 mph - N/A   Clear
9:53 PM 18.0 °F 8.7 °F 3.9 °F 54% 30.09 in 10.0 mi NW 6.9 mph - N/A   Clear
10:53 PM 16.0 °F 6.3 °F 3.9 °F 59% 30.10 in 10.0 mi NW 6.9 mph - N/A   Clear
11:53 PM 15.1 °F 9.4 °F 3.9 °F 61% 30.09 in 10.0 mi Variable 3.5 mph - N/A   Clear